Temp
12 12 12 12 12 12 12 12 13 13 13 13 14 15 15 15 16 16 17 17 17 17 17 17 17 17 16 16 18 17 19 21 19 17 19 20 21 23 25 26 25 26 27 25 24 25 26
12 12 12 12 12 12 12 12 12 12 13 13 14 14 15 15 16 16 17 17 17 17 17 17 17 17 15 21 16 16 17 16 16 18 19 21 22 23 24 25 26 27 26 25 25 27 27
11 11 12 12 11 12 12 12 12 12 12 13 13 14 15 15 16 16 16 16 17 17 17 17 17 17 18 17 16 17 16 16 17 18 20 21 21 22 24 25 25 26 26 27 26 25 28
11 11 11 11 11 11 11 11 12 12 12 13 13 14 15 15 16 16 16 16 17 16 17 17 16 17 18 16 16 17 16 16 16 18 20 20 20 22 23 24 25 26 27 27 29 28 28
11 11 11 11 11 11 11 11 12 12 12 13 13 14 14 15 15 15 16 16 16 16 16 17 16 15 19 17 18 17 17 17 17 17 18 19 20 22 23 25 26 27 28 28 29 29 30
11 11 11 11 11 11 11 11 11 11 12 12 13 13 14 15 15 15 15 15 15 17 16 17 17 18 18 17 17 17 17 17 17 18 19 20 21 24 24 26 26 28 27 30 29 29 30
11 11 11 11 11 11 11 11 11 11 12 12 12 13 14 14 14 14 15 15 16 16 17 17 17 18 17 17 17 17 17 18 18 19 21 21 22 23 25 26 27 27 28 29 29 31 29
11 11 11 11 11 11 11 11 11 11 11 12 12 12 13 13 13 13 13 14 12 12 17 15 15 16 16 16 19 18 18 20 20 21 22 22 22 25 26 25 25 26 26 27 29 29 29
10 10 10 10 10 10 10 10 10 11 11 11 12 12 13 13 13 13 13 12 13 12 17 17 16 17 17 17 18 17 17 19 21 22 23 23 25 25 24 23 23 24 25 26 27 27 28
10 10 10 10 10 9 9 9 9 10 10 11 11 12 13 13 13 13 13 13 13 13 19 18 18 17 17 17 18 16 16 17 21 22 23 23 25 23 23 23 24 25 26 26 26 26 27
10 9 9 9 9 9 9 9 10 10 10 10 11 11 13 13 13 13 13 13 13 12 19 18 18 15 16 18 17 17 15 18 21 21 21 23 23 23 23 23 25 24 26 26 25 26 26
9 8 8 8 9 9 9 9 9 9 10 10 11 11 12 12 12 12 13 13 13 18 19 17 17 17 18 17 17 16 16 16 16 20 21 22 21 22 24 25 24 24 24 25 25 26 25
8 8 7 8 9 9 9 9 9 9 9 10 11 11 12 11 12 13 13 13 18 18 17 17 17 17 17 17 17 17 17 18 20 20 20 21 21 23 23 24 25 24 24 24 24 25 25
8 8 7 8 9 9 8 9 9 9 9 10 11 11 10 10 12 13 12 17 16 18 17 16 16 16 17 16 16 16 16 18 16 18 20 21 21 22 19 22 24 23 25 25 24 26 27
8 8 7 8 8 8 8 8 9 9 9 10 11 9 10 10 11 12 14 17 18 17 17 16 16 16 17 16 16 16 16 16 16 16 18 19 20 19 19 20 21 23 24 26 26 28 28
8 8 8 8 8 8 8 8 8 9 10 10 11 9 10 11 12 12 16 15 16 15 15 15 15 16 16 16 15 15 16 15 14 14 15 16 17 19 18 19 20 21 26 24 25 23 24
8 8 8 8 8 8 8 8 8 9 10 10 8 12 10 11 11 14 16 16 14 14 13 14 15 15 15 15 15 15 15 15 14 13 14 15 15 18 17 20 22 22 21 23 25 25 25
9 8 8 8 7 8 8 8 8 9 10 10 9 16 9 10 14 13 14 11 9 13 13 14 14 14 14 14 14 14 14 15 13 13 14 15 15 14 17 20 20 19 20 23 23 23 25
9 8 8 8 7 7 8 8 8 8 8 7 9 10 9 11 14 13 11 11 10 12 13 12 13 13 14 13 12 13 14 14 12 13 13 13 14 13 17 19 19 18 20 20 21 23 23
9 8 8 8 8 8 7 8 8 8 8 6 9 14 11 9 6 7 7 9 10 10 11 11 11 12 12 12 13 12 12 13 12 12 10 11 13 13 15 17 16 15 17 19 20 20 22
9 8 8 8 8 8 8 8 8 7 7 6 8 9 6 8 8 8 8 8 8 8 10 10 10 10 9 9 11 11 11 11 11 11 11 12 10 12 13 14 14 15 16 16 16 17 18
9 8 8 8 9 8 8 7 7 7 6 7 8 7 5 5 5 8 8 8 7 6 6 7 8 8 6 6 9 10 9 11 11 11 11 12 10 12 12 14 14 14 15 16 16 16 17
9 9 9 9 8 8 8 7 5 4 5 5 4 3 4 4 6 7 7 4 5 5 6 6 6 5 4 5 5 4 8 7 7 10 10 9 10 10 11 13 14 14 15 15 17 17 17
9 9 9 9 8 8 7 5 4 3 4 4 3 3 4 8 7 6 6 7 6 7 6 6 6 6 7 6 7 7 7 8 9 10 11 10 8 9 11 12 10 14 16 17 17 18 19
10 10 9 9 9 9 8 5 4 4 4 4 4 3 3 5 5 6 5 6 6 5 6 7 7 7 7 7 6 6 9 9 10 12 10 10 8 7 8 10 12 13 14 16 17 18 18
10 10 9 9 10 9 8 6 4 4 4 4 4 4 3 4 7 4 4 6 5 6 7 8 7 6 6 5 5 6 7 8 8 10 12 9 9 7 9 7 8 12 7 6 13 16 17
10 10 10 10 10 10 9 8 6 5 5 4 4 4 4 5 7 6 5 4 4 4 4 6 7 6 5 4 5 7 7 5 6 6 7 8 7 6 7 8 9 11 7 5 9 15 15
10 10 10 10 10 10 10 9 8 5 5 5 4 4 4 4 6 6 5 5 4 4 4 4 7 6 4 5 5 5 5 5 5 5 6 7 6 6 6 6 6 6 4 7 11 9 8
10 10 10 10 10 10 10 10 8 6 6 6 4 5 5 4 6 5 5 5 4 4 4 5 6 6 4 4 4 4 5 5 5 6 3 5 5 5 5 7 5 3 3 6 7 7 7
Height
1569 1567 1565 1562 1559 1556 1553 1550 1547 1543 1539 1535 1531 1527 1522 1518 1514 1510 1506 1503 1500 1498 1495 1492 1490 1487 1486 1490 1492 1488 1484 1483 1487 1494 1500 1503 1505 1505 1501 1500 1503 1502 1498 1500 1503 1502 1501
1570 1567 1565 1563 1560 1557 1553 1550 1546 1542 1538 1534 1530 1525 1520 1515 1511 1507 1504 1500 1498 1495 1492 1489 1487 1486 1487 1488 1490 1488 1486 1485 1491 1497 1500 1503 1504 1505 1502 1501 1500 1495 1498 1500 1502 1496 1499
1571 1569 1566 1563 1560 1556 1553 1549 1545 1541 1537 1532 1528 1523 1519 1513 1508 1504 1501 1498 1495 1492 1490 1488 1486 1485 1490 1493 1489 1488 1487 1490 1494 1498 1500 1503 1504 1505 1501 1501 1500 1498 1497 1494 1495 1498 1495
1571 1568 1565 1562 1558 1555 1552 1548 1544 1540 1535 1530 1526 1521 1516 1511 1506 1502 1499 1496 1492 1490 1489 1488 1487 1487 1491 1491 1490 1490 1488 1490 1493 1498 1501 1503 1504 1503 1502 1499 1498 1496 1495 1493 1481 1490 1490
1571 1567 1564 1561 1558 1554 1550 1546 1542 1538 1533 1528 1523 1519 1514 1509 1504 1500 1497 1494 1492 1490 1489 1488 1489 1488 1491 1491 1492 1490 1488 1490 1493 1498 1500 1503 1504 1501 1501 1497 1492 1488 1487 1487 1480 1483 1482
1570 1567 1563 1559 1556 1552 1548 1544 1540 1536 1531 1526 1521 1517 1512 1508 1503 1499 1496 1493 1492 1490 1489 1488 1489 1491 1492 1494 1491 1489 1487 1490 1492 1497 1500 1501 1501 1496 1495 1490 1489 1481 1486 1473 1481 1476 1479
1569 1566 1562 1558 1554 1550 1545 1541 1537 1533 1529 1524 1519 1514 1511 1506 1502 1499 1496 1493 1495 1494 1493 1492 1493 1491 1491 1492 1491 1490 1489 1491 1490 1493 1491 1494 1495 1487 1483 1484 1479 1481 1474 1476 1472 1469 1478
1568 1565 1561 1557 1552 1548 1544 1540 1536 1531 1526 1521 1517 1512 1508 1504 1502 1500 1498 1498 1497 1498 1492 1493 1493 1492 1491 1490 1490 1491 1491 1489 1488 1484 1486 1491 1486 1480 1482 1483 1487 1486 1486 1483 1473 1474 1476
1567 1563 1558 1554 1549 1545 1541 1536 1532 1527 1522 1517 1513 1509 1506 1503 1501 1500 1499 1498 1495 1494 1492 1491 1492 1492 1492 1492 1491 1492 1491 1489 1483 1479 1479 1479 1472 1478 1482 1487 1490 1487 1485 1483 1483 1481 1478
1564 1560 1555 1551 1547 1542 1538 1534 1529 1524 1520 1515 1510 1506 1503 1502 1503 1500 1500 1496 1493 1493 1482 1486 1488 1491 1492 1490 1490 1492 1491 1491 1484 1477 1476 1475 1470 1478 1481 1484 1484 1484 1479 1484 1485 1487 1486
1561 1556 1553 1549 1545 1540 1536 1531 1527 1522 1517 1512 1507 1503 1501 1499 1500 1501 1499 1495 1493 1494 1481 1486 1489 1492 1491 1489 1491 1490 1491 1489 1480 1478 1479 1470 1473 1474 1479 1477 1476 1479 1475 1480 1486 1487 1483
1559 1554 1550 1546 1542 1538 1534 1529 1524 1519 1513 1509 1504 1500 1498 1498 1499 1499 1497 1495 1495 1487 1476 1485 1488 1490 1489 1490 1492 1492 1491 1490 1489 1484 1480 1470 1475 1473 1469 1472 1476 1477 1480 1481 1482 1482 1488
1556 1551 1548 1544 1541 1537 1532 1527 1521 1516 1510 1505 1501 1497 1495 1496 1499 1496 1496 1497 1486 1477 1481 1485 1485 1488 1489 1490 1491 1491 1489 1485 1478 1481 1475 1472 1472 1471 1471 1468 1468 1474 1476 1485 1490 1483 1473
1552 1550 1546 1543 1539 1535 1530 1524 1519 1514 1508 1503 1498 1494 1494 1495 1495 1495 1496 1491 1488 1476 1479 1488 1488 1489 1488 1491 1491 1492 1489 1482 1489 1482 1471 1470 1472 1469 1477 1468 1462 1467 1465 1464 1477 1463 1458
1549 1546 1544 1541 1537 1533 1528 1523 1517 1511 1506 1500 1496 1495 1497 1495 1494 1494 1494 1483 1475 1482 1485 1486 1487 1484 1482 1491 1492 1490 1490 1486 1491 1489 1482 1474 1473 1477 1478 1477 1472 1460 1461 1451 1451 1439 1441
1547 1545 1542 1539 1535 1531 1526 1521 1515 1510 1504 1498 1495 1496 1497 1494 1493 1493 1488 1485 1485 1489 1490 1489 1486 1483 1482 1483 1492 1488 1486 1490 1493 1496 1494 1486 1483 1475 1477 1478 1470 1465 1449 1462 1457 1472 1464
1548 1545 1541 1538 1534 1529 1524 1519 1513 1508 1503 1498 1496 1495 1497 1493 1492 1491 1482 1481 1491 1492 1494 1490 1486 1484 1485 1486 1488 1486 1485 1492 1495 1498 1498 1492 1490 1475 1478 1468 1456 1461 1463 1457 1444 1448 1453
1547 1544 1540 1536 1532 1528 1523 1517 1512 1507 1502 1497 1497 1490 1497 1493 1491 1492 1487 1499 1501 1493 1494 1493 1492 1488 1487 1486 1488 1487 1487 1486 1495 1496 1494 1493 1487 1486 1474 1464 1467 1468 1464 1451 1452 1454 1440
1546 1543 1539 1535 1531 1526 1521 1516 1512 1508 1503 1499 1501 1500 1499 1494 1488 1492 1501 1500 1501 1497 1494 1494 1491 1491 1489 1489 1491 1487 1488 1490 1496 1496 1493 1496 1489 1486 1464 1464 1465 1468 1460 1462 1458 1447 1440
1546 1543 1538 1534 1529 1524 1520 1515 1512 1508 1505 1502 1503 1494 1501 1504 1511 1511 1510 1504 1499 1501 1499 1500 1496 1495 1493 1490 1487 1489 1489 1494 1497 1496 1500 1501 1490 1487 1472 1456 1471 1477 1471 1461 1457 1453 1445
1544 1540 1537 1532 1527 1523 1519 1515 1512 1509 1507 1505 1506 1508 1512 1509 1511 1512 1511 1508 1507 1505 1501 1500 1495 1496 1497 1497 1488 1486 1490 1494 1495 1496 1499 1498 1494 1487 1482 1481 1479 1477 1474 1472 1472 1468 1462
1544 1539 1534 1531 1527 1522 1518 1515 1512 1510 1508 1511 1510 1513 1516 1517 1517 1511 1511 1507 1507 1510 1512 1505 1503 1499 1503 1502 1492 1486 1492 1491 1488 1491 1492 1491 1488 1485 1479 1476 1477 1473 1470 1465 1466 1469 1464
1543 1539 1534 1530 1526 1521 1517 1514 1512 1511 1510 1513 1514 1516 1517 1518 1515 1514 1513 1515 1513 1513 1509 1506 1506 1507 1506 1503 1500 1498 1494 1495 1496 1489 1488 1490 1488 1486 1477 1469 1464 1462 1461 1460 1451 1455 1456
1543 1538 1534 1529 1525 1520 1516 1514 1513 1513 1513 1514 1515 1516 1516 1511 1514 1514 1515 1511 1511 1509 1507 1504 1504 1503 1501 1498 1496 1493 1490 1487 1485 1482 1480 1481 1488 1488 1474 1465 1467 1451 1453 1448 1439 1438 1440
1542 1537 1532 1528 1523 1519 1515 1513 1514 1514 1514 1515 1516 1517 1517 1516 1517 1514 1515 1512 1509 1507 1505 1501 1500 1500 1496 1494 1493 1487 1471 1473 1468 1465 1470 1475 1485 1486 1480 1467 1455 1447 1442 1438 1427 1420 1429
1542 1537 1531 1526 1522 1519 1516 1514 1514 1515 1515 1516 1517 1518 1517 1518 1515 1517 1514 1512 1510 1507 1503 1498 1498 1496 1495 1494 1491 1479 1469 1466 1462 1455 1453 1471 1475 1484 1471 1471 1458 1432 1446 1449 1428 1414 1422
1541 1537 1531 1527 1523 1520 1518 1516 1516 1517 1517 1518 1519 1518 1518 1517 1515 1515 1515 1514 1511 1509 1507 1501 1497 1495 1495 1494 1486 1475 1471 1478 1471 1465 1459 1460 1470 1473 1471 1467 1452 1443 1445 1454 1437 1410 1419
1541 1536 1531 1527 1525 1521 1519 1519 1518 1517 1518 1518 1519 1518 1519 1519 1515 1514 1514 1513 1510 1508 1506 1503 1495 1495 1496 1491 1486 1482 1478 1475 1471 1469 1464 1464 1471 1470 1472 1472 1461 1451 1451 1443 1420 1423 1426
1540 1535 1531 1527 1526 1523 1521 1520 1521 1519 1519 1519 1519 1518 1518 1518 1517 1514 1513 1511 1510 1509 1507 1504 1502 1498 1498 1496 1491 1489 1481 1477 1472 1461 1474 1472 1472 1467 1469 1454 1453 1452 1448 1435 1428 1426 1426
Wind_Speed
16 16 16 17 18 18 19 20 21 22 23 24 24 24 24 24 21 20 19 16 16 17 16 14 13 12 3 3 3 9 7 4 24 27 28 25 27 20 15 15 9 17 8 5 6 8 8
15 16 16 17 17 18 19 21 22 24 25 26 25 25 26 26 23 21 19 16 15 15 14 14 9 5 6 5 4 9 9 12 23 25 25 24 21 16 10 7 15 4 18 9 5 10 7
17 17 18 18 18 19 20 22 23 25 26 26 27 27 27 27 25 22 18 16 15 13 8 7 11 18 10 5 4 4 4 10 18 20 24 21 8 18 6 10 14 14 6 10 17 19 10
17 18 18 18 19 19 21 23 24 26 27 28 28 28 27 26 23 19 17 15 11 7 5 5 10 10 6 8 8 5 3 11 16 15 18 16 11 20 9 2 7 15 15 13 15 18 13
18 19 19 19 19 20 22 23 25 26 27 28 28 27 26 24 21 17 16 13 3 9 6 7 6 3 5 5 8 6 3 9 16 14 13 14 12 14 15 12 11 12 12 18 10 15 12
19 19 20 21 21 22 23 24 26 27 27 28 28 27 25 21 15 15 16 7 3 12 3 6 7 3 8 6 10 7 4 14 14 20 11 16 14 11 13 14 13 15 17 13 16 13 18
22 22 22 23 24 25 25 26 27 27 27 27 27 26 24 18 9 12 15 5 3 2 7 6 6 5 5 3 8 8 6 7 11 23 14 17 15 19 19 18 16 8 12 16 14 13 14
22 22 22 23 23 24 25 26 25 25 25 25 25 26 23 13 6 8 11 4 5 1 2 2 2 4 5 3 1 11 2 8 13 17 19 11 19 18 15 14 15 16 11 13 9 8 11
25 24 23 23 24 24 25 26 25 26 25 25 25 25 21 11 4 7 5 7 10 1 6 5 2 2 6 2 5 10 6 3 12 16 18 17 5 19 14 15 17 18 18 14 11 4 14
25 26 25 24 25 26 26 26 25 26 25 24 23 22 18 7 1 7 3 14 11 3 5 8 6 2 5 3 2 7 9 2 7 11 15 17 15 6 17 18 17 18 17 14 15 12 12
27 27 25 25 24 24 25 25 26 26 26 24 23 21 13 2 1 4 8 13 4 1 5 5 4 2 3 2 4 4 6 3 5 7 7 11 13 19 18 13 20 16 12 13 14 17 16
27 26 23 23 22 23 24 25 26 27 27 24 22 19 9 2 2 4 7 8 1 7 4 5 3 1 2 4 2 5 3 0 1 6 11 16 1 7 20 19 11 4 15 13 14 14 18
25 23 19 19 21 23 24 25 27 27 27 25 22 16 5 2 3 4 5 1 6 7 3 6 3 2 0 1 1 4 3 2 5 10 14 13 15 13 12 13 21 17 13 9 12 14 20
25 22 17 19 21 23 24 26 27 28 28 26 22 10 4 2 2 3 2 7 7 4 1 3 2 3 5 2 3 1 2 5 1 6 4 10 13 15 1 17 13 23 21 12 20 14 20
24 17 16 19 21 22 24 27 28 28 27 24 16 5 5 6 3 2 8 6 4 2 3 3 5 8 6 5 5 4 3 2 1 4 6 7 10 3 3 4 9 18 22 25 23 16 13
16 15 16 19 20 22 25 28 29 28 26 25 10 4 8 9 1 4 6 5 2 3 2 4 9 3 6 6 5 3 4 6 5 1 5 3 7 4 2 9 17 18 16 18 17 23 23
15 15 17 19 21 23 25 28 28 27 24 22 6 3 10 7 3 7 5 3 3 3 4 5 7 9 8 8 7 9 3 7 4 5 3 2 3 8 3 11 17 16 19 15 16 19 18
16 16 17 20 22 25 26 26 26 25 23 21 6 1 14 6 2 2 3 5 5 5 4 7 6 12 12 10 11 11 9 5 8 7 3 1 4 8 12 10 11 11 15 18 17 24 20
16 18 19 21 24 25 24 24 22 21 21 16 6 4 11 7 2 5 6 4 3 7 5 6 7 5 8 11 7 9 6 3 10 9 3 4 4 6 8 17 16 12 20 15 16 21 23
18 20 22 24 24 23 22 20 19 18 17 9 4 1 6 15 14 8 5 8 6 3 6 6 9 10 12 12 12 6 8 6 11 13 5 3 11 12 12 14 11 10 12 14 17 17 20
20 22 23 23 22 22 20 19 18 16 13 9 7 5 5 4 8 6 3 3 4 6 5 8 5 8 9 7 14 16 12 11 13 14 13 8 10 14 17 16 16 18 19 19 20 18 22
22 22 22 22 22 21 19 18 16 14 11 9 4 3 4 5 4 5 5 5 7 5 2 6 8 10 7 7 14 7 10 15 15 15 17 15 13 13 17 16 18 23 23 26 25 25 25
22 21 22 22 22 20 18 15 13 12 11 5 6 5 3 0 1 3 3 2 5 11 4 11 14 9 8 12 17 22 23 19 15 13 17 15 10 12 18 18 20 23 21 27 30 27 27
21 21 22 23 23 20 16 12 9 9 8 7 6 5 1 3 3 4 7 9 9 9 8 12 8 5 4 12 14 17 23 23 26 21 22 14 14 11 14 16 19 22 25 27 31 30 28
20 21 23 23 22 18 13 9 6 8 5 6 5 5 1 1 4 4 9 8 10 8 8 6 6 9 15 17 6 7 11 12 23 25 23 20 12 7 10 12 17 27 24 22 30 30 24
19 22 23 22 18 15 12 9 7 6 6 6 5 4 1 1 1 5 6 8 4 8 7 3 8 10 7 3 3 4 3 3 3 5 19 23 19 11 10 10 15 8 18 40 36 18 18
19 22 22 19 14 13 12 11 8 7 8 8 3 3 1 2 3 4 3 3 4 4 4 9 12 4 2 1 3 3 3 1 3 4 5 14 15 15 15 13 13 14 20 33 9 10 14
19 21 18 15 12 10 10 10 7 8 6 7 3 4 3 2 5 3 3 5 6 5 3 9 7 2 2 2 2 2 3 2 3 2 3 7 6 7 9 9 15 8 17 6 4 13 9
17 19 16 12 10 9 7 8 5 8 6 5 1 2 2 1 3 4 4 6 7 6 7 6 5 5 3 3 2 3 2 3 7 2 1 2 4 2 5 4 4 17 25 16 10 6 4
Wind_Direction
29 25 21 17 13 12 11 10 7 4 2 1 360 355 350 347 343 335 336 335 333 332 330 328 339 337 88 140 55 4 342 241 177 171 180 183 187 196 208 210 210 230 262 267 168 235 159
23 19 14 10 8 7 6 6 3 360 358 356 356 354 349 345 342 335 334 332 330 329 326 328 354 69 96 139 5 6 24 145 169 175 182 184 195 200 240 226 220 214 234 232 221 228 195
15 10 7 4 3 2 1 359 358 355 353 351 352 352 349 345 339 338 336 332 331 325 329 359 104 97 78 56 11 29 54 172 180 181 187 192 203 198 213 221 224 237 252 224 230 245 231
7 4 2 1 359 356 353 352 352 351 348 348 348 349 347 345 338 341 338 337 340 344 9 65 138 92 86 53 48 24 89 156 175 185 196 195 215 209 230 269 220 224 230 242 217 208 218
1 359 357 355 352 350 349 348 347 348 345 344 345 346 346 345 338 343 344 341 47 13 104 113 81 87 92 21 15 6 160 168 171 177 181 201 195 207 213 233 216 203 219 217 203 207 207
356 353 350 348 347 345 345 344 344 345 344 343 343 344 346 347 341 348 350 351 110 34 77 68 72 172 46 0 14 6 119 148 158 177 179 192 208 211 220 212 214 205 219 213 210 188 212
352 349 347 344 342 341 340 340 342 341 341 341 340 341 348 347 347 358 4 25 343 153 37 52 67 70 32 26 27 42 140 176 179 176 191 195 207 214 213 217 242 299 234 232 199 230 203
352 349 346 343 342 340 338 339 340 338 341 341 339 340 349 350 356 1 30 70 47 305 241 110 45 53 26 46 147 37 136 214 177 188 196 183 225 219 228 216 231 235 240 230 255 242 252
349 347 345 343 342 341 341 341 342 341 344 344 341 339 347 344 7 358 28 21 358 342 256 163 151 51 16 49 52 20 12 235 218 215 202 213 225 215 205 225 216 230 234 235 252 171 258
343 341 341 341 341 341 345 343 345 343 343 343 340 338 345 355 49 348 341 342 347 166 255 135 179 86 10 182 156 28 4 299 219 227 212 229 214 204 198 223 212 232 221 243 253 256 239
338 336 337 339 341 343 343 343 346 344 343 343 339 338 341 6 273 337 317 339 347 189 262 106 124 104 18 230 10 40 1 239 258 189 234 207 220 226 222 214 221 241 245 234 238 248 258
339 339 334 336 341 342 342 345 348 344 342 340 337 334 327 278 306 322 334 341 181 229 220 127 130 117 209 50 58 343 357 336 251 256 225 263 248 273 232 224 204 248 223 223 233 236 240
337 332 333 340 343 345 345 347 347 345 345 343 341 334 296 222 253 308 336 267 237 249 120 136 134 181 277 52 104 3 26 118 249 214 213 210 234 225 250 219 210 210 193 206 219 219 236
336 333 337 342 346 347 346 346 346 347 346 345 344 341 172 328 240 286 283 241 255 34 284 101 168 185 262 259 148 355 238 213 105 268 259 224 195 204 6 242 215 213 214 228 217 214 229
338 341 344 345 348 347 345 343 346 349 349 348 353 113 47 338 231 216 252 245 316 8 22 231 213 252 195 207 287 261 267 264 18 315 266 218 232 130 244 275 253 221 219 226 259 267 251
347 348 348 349 347 345 344 344 345 348 352 351 15 131 17 8 158 214 249 270 301 320 293 252 263 215 253 187 257 215 188 135 155 359 322 100 264 182 251 266 236 247 230 215 231 241 246
354 354 351 349 345 343 344 344 345 350 357 355 25 212 356 359 60 224 260 40 290 267 268 253 270 263 255 275 260 271 284 129 191 155 306 293 262 150 269 212 221 216 241 255 249 224 238
360 357 352 347 343 342 344 343 346 351 360 10 9 224 354 10 217 358 17 353 349 296 246 276 283 277 275 277 264 251 244 253 167 180 239 149 312 259 251 266 281 284 279 248 232 225 236
4 357 350 346 342 341 343 345 349 1 6 6 4 3 2 16 7 46 28 31 326 309 337 319 289 296 291 270 259 244 223 227 181 208 225 178 213 274 227 213 227 237 244 241 263 272 254
1 352 348 344 343 344 346 349 357 9 11 32 350 354 55 61 55 51 5 23 9 326 298 311 286 284 278 261 249 246 228 199 211 228 126 234 265 248 274 318 346 285 278 280 248 249 250
356 351 347 346 348 348 350 352 360 15 25 53 8 63 17 21 49 47 100 349 335 7 319 305 281 271 265 259 255 238 229 242 214 221 203 236 241 248 256 264 275 270 270 259 255 255 256
354 353 349 349 350 350 350 351 357 22 44 42 29 40 51 80 342 334 35 4 339 346 281 301 267 317 301 254 261 267 281 235 234 221 220 224 255 264 268 261 257 258 260 264 250 249 255
354 354 351 349 348 348 349 352 3 32 61 72 92 83 106 210 304 328 29 283 291 319 298 272 300 297 271 262 256 259 275 257 249 255 223 212 238 245 257 261 254 249 251 257 258 240 242
356 355 351 349 348 347 351 360 9 49 67 90 97 105 165 90 35 360 325 330 348 331 288 293 294 263 301 293 291 262 250 242 240 238 241 224 224 245 257 274 263 259 254 259 253 242 235
356 353 351 349 349 351 6 20 34 55 68 79 91 93 97 23 344 350 344 337 327 328 315 312 309 295 296 288 277 265 252 247 242 238 224 224 220 244 242 248 263 278 272 266 235 231 229
355 352 354 355 356 6 22 31 49 80 82 86 84 89 84 318 53 315 329 331 331 346 333 322 332 318 310 302 261 266 275 281 289 257 213 215 202 214 242 250 260 267 321 319 309 208 199
354 354 358 1 7 23 40 49 72 97 103 101 91 78 100 310 6 328 333 314 297 294 293 284 335 326 359 285 259 286 307 11 248 238 186 199 206 214 231 251 271 288 301 302 244 163 156
355 355 1 7 8 30 51 63 93 116 113 113 113 95 113 315 337 336 305 306 299 268 289 311 312 59 305 288 301 342 287 305 274 62 213 186 185 212 233 244 255 18 305 227 35 91 101
357 357 1 10 360 16 59 89 106 114 116 92 322 258 269 217 322 330 308 293 279 298 315 309 314 354 320 307 337 299 305 315 315 39 46 200 219 282 220 228 339 296 282 328 2 74 67